CW2927 Weather Reports


Display with metric or nautical units.
time (UTC)temp
F
wind
direction
speed
MPH
gust
MPH
rain 1hr
in
rain 24hr
in
rain mn
in
humidity
%
barometer
mb
20191121112706 30 305 0.0 0.0 0.00 0.12 0.01 96 1021.4
20191121112206 30 305 0.0 0.0 0.00 0.12 0.01 96 1021.3
20191121110707 30 305 0.0 0.0 0.00 0.12 0.01 96 1021.0
20191121110207 30 305 0.0 0.0 0.00 0.12 0.01 96 1021.1
20191121104706 30 305 0.0 1.0 0.00 0.12 0.01 96 1021.1
20191121104207 30 305 1.0 3.0 0.00 0.12 0.01 96 1021.2
20191121102707 30 306 2.0 5.0 0.00 0.12 0.01 96 1021.3
20191121102207 30 311 4.0 6.0 0.00 0.12 0.01 96 1021.5
20191121100707 29 319 0.0 0.0 0.00 0.12 0.01 96 1021.1
20191121100207 29 319 0.0 0.0 0.00 0.12 0.01 96 1021.0
20191121094707 29 319 0.0 0.0 0.00 0.12 0.01 96 1020.9
20191121094207 29 319 0.0 3.0 0.00 0.12 0.01 96 1021.0
20191121092707 29 320 0.0 0.0 0.00 0.12 0.01 96 1020.9
20191121092207 29 320 0.0 0.0 0.00 0.12 0.01 96 1020.9
20191121090706 29 320 0.0 0.0 0.00 0.12 0.01 96 1020.7
20191121090207 29 320 0.0 0.0 0.00 0.12 0.01 96 1020.6
20191121084707 30 320 0.0 0.0 0.01 0.12 0.01 96 1020.6
20191121084207 30 320 0.0 0.0 0.01 0.12 0.01 96 1020.7
20191121082707 30 320 0.0 0.0 0.01 0.12 0.01 96 1021.0
20191121082207 30 320 0.0 0.0 0.01 0.12 0.01 96 1020.9
20191121080707 31 320 0.0 0.0 0.01 0.13 0.01 96 1020.8
20191121080207 31 320 0.0 0.0 0.01 0.13 0.01 96 1020.7
20191121074707 31 320 0.0 0.0 0.00 0.12 0.00 96 1020.6
20191121074207 31 320 0.0 0.0 0.00 0.12 0.00 96 1020.3
20191121072707 32 320 0.0 0.0 0.00 0.12 0.00 96 1020.5
20191121072206 32 320 0.0 3.0 0.00 0.12 0.00 96 1020.5
20191121070707 32 319 2.0 3.0 0.00 0.12 0.00 96 1020.4
20191121070207 32 319 2.0 5.0 0.00 0.12 0.00 96 1020.4
20191121064706 32 321 2.0 5.0 0.00 0.12 0.00 96 1020.5
20191121064206 32 323 2.0 5.0 0.00 0.12 0.00 96 1020.5
20191121062707 33 323 0.0 0.0 0.00 0.12 0.00 96 1020.4
20191121062207 33 323 0.0 0.0 0.00 0.12 0.00 96 1020.3
20191121060707 33 322 0.0 0.0 0.00 0.12 0.00 96 1020.2
20191121060206 33 322 0.0 0.0 0.00 0.12 0.00 96 1020.1
20191121054706 33 321 0.0 0.0 0.00 0.12 0.00 96 1020.0
20191121054207 33 321 0.0 0.0 0.00 0.12 0.00 96 1020.1
20191121052706 33 321 0.0 0.0 0.00 0.12 0.00 96 1020.1
20191121052206 33 321 0.0 0.0 0.00 0.12 0.00 96 1020.1
20191121050708 33 321 0.0 0.0 0.00 0.12 0.00 96 1020.0
20191121050207 33 321 0.0 0.0 0.00 0.12 0.00 96 1020.1
20191121044707 33 321 0.0 0.0 0.00 0.12 0.12 96 1020.1
20191121044207 33 321 0.0 0.0 0.00 0.12 0.12 96 1020.1
20191121042707 33 321 0.0 0.0 0.00 0.12 0.12 96 1020.0
20191121042207 33 321 0.0 0.0 0.00 0.12 0.12 96 1020.0
20191121040707 33 321 0.0 0.0 0.00 0.12 0.12 96 1019.9
20191121040207 33 321 0.0 0.0 0.00 0.12 0.12 96 1019.9
20191121034706 33 321 0.0 0.0 0.00 0.12 0.12 96 1019.8
20191121034206 33 321 0.0 0.0 0.00 0.12 0.12 96 1019.8
20191121032707 33 321 0.0 0.0 0.00 0.12 0.12 96 1019.7
20191121032207 33 321 0.0 0.0 0.00 0.12 0.12 96 1019.6
20191121030707 33 321 0.0 0.0 0.00 0.12 0.12 96 1019.6
20191121030207 33 321 0.0 0.0 0.00 0.12 0.12 96 1019.5
20191121024707 33 321 0.0 0.0 0.01 0.12 0.12 96 1019.6
20191121024207 33 321 0.0 0.0 0.01 0.12 0.12 96 1019.7
20191121022707 33 325 0.0 0.0 0.01 0.12 0.12 96 1019.7
20191121022207 33 325 0.0 0.0 0.01 0.12 0.12 96 1019.7
20191121020706 33 325 0.0 0.0 0.01 0.12 0.12 96 1019.7
20191121020206 33 325 0.0 0.0 0.01 0.12 0.12 96 1019.8
20191121014707 33 325 0.0 0.0 0.00 0.11 0.11 96 1019.6
20191121014207 33 325 0.0 3.0 0.00 0.11 0.11 96 1019.6
20191121012707 33 327 2.0 3.0 0.00 0.11 0.11 96 1019.5
20191121012207 33 336 0.0 3.0 0.00 0.11 0.11 96 1019.5
20191121010706 33 344 2.0 6.0 0.00 0.11 0.11 96 1019.4
20191121010207 33 327 2.0 5.0 0.00 0.11 0.11 96 1019.2
20191121004707 33 323 2.0 6.0 0.00 0.11 0.11 96 1019.2
20191121004206 33 309 2.0 5.0 0.00 0.11 0.11 96 1019.2
20191121002707 33 326 2.0 5.0 0.00 0.11 0.11 96 1019.1
20191121002207 33 306 2.0 5.0 0.00 0.11 0.11 96 1019.1
20191121000706 33 4 0.0 2.0 0.00 0.11 0.11 96 1018.9
20191121000206 33 9 0.0 0.0 0.00 0.11 0.11 96 1018.8
20191120234707 33 9 0.0 0.0 0.00 0.11 0.11 96 1018.6
20191120234207 33 9 0.0 0.0 0.00 0.11 0.11 96 1018.6
20191120232706 33 9 0.0 0.0 0.00 0.11 0.11 96 1018.5
20191120232206 33 9 0.0 0.0 0.00 0.11 0.11 96 1018.5
20191120230707 33 9 0.0 0.0 0.00 0.11 0.11 96 1018.4
20191120230207 33 9 0.0 0.0 0.00 0.11 0.11 96 1018.3
20191120224707 33 9 0.0 0.0 0.00 0.11 0.11 96 1018.2
20191120224206 33 9 0.0 0.0 0.00 0.11 0.11 96 1018.2
20191120222707 33 10 0.0 0.0 0.00 0.11 0.11 96 1018.1
20191120222207 33 10 0.0 0.0 0.00 0.11 0.11 96 1018.1
20191120220706 33 10 0.0 1.0 0.00 0.11 0.11 96 1017.9
20191120220207 33 10 0.0 0.0 0.00 0.11 0.11 96 1017.9
20191120214707 33 10 0.0 0.0 0.00 0.11 0.11 95 1017.7
20191120214207 33 10 0.0 0.0 0.00 0.12 0.11 95 1017.7
20191120212706 34 10 0.0 0.0 0.00 0.12 0.11 95 1017.7
20191120212206 34 10 0.0 0.0 0.00 0.12 0.11 95 1017.6
20191120210706 34 10 0.0 0.0 0.00 0.12 0.11 96 1017.6
20191120210207 34 10 0.0 0.0 0.00 0.12 0.11 96 1017.5
20191120204706 34 10 0.0 0.0 0.00 0.13 0.11 95 1017.3
20191120204206 34 10 0.0 0.0 0.00 0.13 0.11 95 1017.3
20191120202706 34 10 0.0 0.0 0.00 0.13 0.11 95 1017.1
20191120202206 34 10 0.0 0.0 0.01 0.13 0.11 95 1017.1
20191120200706 34 12 0.0 0.0 0.01 0.13 0.11 95 1016.9
20191120200207 34 53 0.0 0.0 0.01 0.14 0.11 95 1016.9
20191120194706 34 62 0.0 0.0 0.01 0.14 0.11 95 1016.8
20191120194207 34 62 0.0 0.0 0.01 0.15 0.11 95 1016.7
20191120192706 34 62 0.0 0.0 0.02 0.15 0.11 95 1016.5
20191120192206 34 62 0.0 0.0 0.01 0.14 0.10 95 1016.5
20191120190707 34 62 0.0 0.0 0.02 0.15 0.10 95 1016.4
20191120190207 34 62 0.0 0.0 0.02 0.15 0.10 95 1016.4
20191120184706 34 62 0.0 0.0 0.02 0.15 0.10 96 1016.2
20191120184207 34 62 0.0 3.0 0.02 0.15 0.10 95 1016.2
20191120182706 35 65 0.0 0.0 0.02 0.15 0.09 96 1016.1
20191120182207 35 69 0.0 1.0 0.02 0.15 0.09 96 1016.1
20191120180706 35 86 0.0 0.0 0.02 0.14 0.09 96 1016.0
20191120180206 35 86 0.0 0.0 0.02 0.14 0.09 96 1016.1
20191120174706 35 86 0.0 0.0 0.02 0.15 0.09 96 1016.1
20191120174206 35 86 0.0 0.0 0.02 0.14 0.08 96 1016.1
20191120172707 34 86 0.0 0.0 0.02 0.14 0.08 96 1016.1
20191120172206 34 86 0.0 0.0 0.02 0.13 0.07 96 1016.0
20191120170707 34 86 0.0 0.0 0.02 0.14 0.07 96 1016.1
20191120170207 34 86 0.0 0.0 0.02 0.14 0.07 96 1016.0
20191120164706 34 86 0.0 0.0 0.02 0.13 0.06 96 1016.0
20191120164207 34 86 0.0 0.0 0.02 0.13 0.06 96 1016.0
20191120162705 34 86 0.0 0.0 0.02 0.13 0.06 96 1015.9
20191120162206 34 87 0.0 0.0 0.03 0.13 0.06 96 1016.0
20191120160706 34 87 0.0 0.0 0.03 0.13 0.06 96 1016.0
20191120160206 34 87 1.0 3.0 0.03 0.13 0.06 96 1016.0
20191120154706 34 88 0.0 0.0 0.02 0.12 0.04 96 1015.8
20191120154206 34 88 0.0 0.0 0.02 0.12 0.04 96 1015.8
20191120152706 34 88 0.0 0.0 0.02 0.11 0.03 96 1015.9
20191120152206 34 88 0.0 0.0 0.02 0.10 0.02 96 1015.9
20191120150706 34 88 0.0 0.0 0.02 0.10 0.02 96 1015.9
20191120150206 34 88 0.0 0.0 0.02 0.10 0.02 96 1016.0
20191120144706 34 88 0.0 0.0 0.01 0.09 0.02 96 1015.8
20191120144206 34 88 0.0 0.0 0.01 0.09 0.02 96 1015.9
20191120142706 34 205 0.0 0.0 0.00 0.09 0.01 96 1015.8
20191120142206 34 205 0.0 0.0 0.00 0.09 0.01 96 1015.8
20191120140706 33 205 0.0 0.0 0.00 0.09 0.01 96 1015.8
20191120140206 33 223 0.0 0.0 0.00 0.09 0.01 96 1015.9
20191120134706 33 223 0.0 0.0 0.00 0.09 0.01 96 1015.9
20191120134205 33 223 0.0 0.0 0.00 0.09 0.01 96 1015.8
20191120132706 33 213 0.0 0.0 0.00 0.09 0.01 96 1015.9
20191120132206 33 213 0.0 0.0 0.00 0.09 0.01 96 1016.0
20191120130706 33 213 0.0 0.0 0.00 0.09 0.01 96 1016.0
20191120130206 33 213 0.0 0.0 0.00 0.09 0.01 96 1016.0
20191120124706 33 213 0.0 0.0 0.00 0.09 0.01 96 1016.0
20191120124206 33 213 0.0 0.0 0.00 0.09 0.01 96 1016.0
20191120122706 33 213 0.0 0.0 0.00 0.09 0.01 96 1015.9
20191120122206 33 213 0.0 0.0 0.00 0.09 0.01 96 1015.9
20191120120706 33 213 0.0 0.0 0.00 0.09 0.01 96 1015.5
20191120120206 33 213 0.0 0.0 0.00 0.09 0.01 96 1015.4
20191120114706 33 213 0.0 0.0 0.00 0.09 0.01 96 1015.1
20191120114206 33 213 0.0 0.0 0.00 0.09 0.01 96 1015.0